Flag for U.S.A. Weather past 2 weeks in Simi Valley, California, U.S.A.

Now
62 °F

Clear.


Feels Like: 62 °F
Forecast: 58 / 84 °F
Wind: No wind

Location: Van Nuys Airport

Current Time: Oct 24, 2014 at 1:18:53 AM

Latest Report: Oct 24, 2014 at 12:51 AM


Visibility: 10 mi

Pressure: 29.96 "Hg

Humidity: 43%

Dew point: 39 °F

Location of Simi ValleyLocation

Historic Weather in Simi Valley — Graph

°F

Simi Valley temperature yesterday

Maximum temperature yesterday: 89 °F (at 2:51 PM)
Minimum temperature yesterday: 58 °F (at 5:51 AM)
Average temperature yesterday: 72 °F

Past Weeks' High & Low Weather Summary

 TemperatureHumidityPressure
High90 °F (Oct 13, 12:51 PM)97% (Oct 13, 8:51 AM)30.02 "Hg (Oct 13, 8:51 AM)
Low55 °F (Oct 21, 6:51 AM)11% (Oct 22, 2:51 PM)29.80 "Hg (Oct 18, 4:51 PM)
Average69 °F63%29.91 "Hg
* Reported Oct 8 11:51 PM — Oct 23 11:51 PM, Simi Valley, Weather by CustomWeather, © 2014

Note: Actual official high and low records may vary slightly from our data, if they occured in-between our weather recording intervals... More about our weather records

Advertising

Simi Valley weather history for previous 24 hours

 ConditionsComfort  
Time TempWeatherWind HumidityBarometerVisibility
11:51 PM
Oct 23
63 °FClear.No wind41%29.95 "Hg10 mi
10:51 PM67 °FClear.No wind31%29.94 "Hg10 mi
9:51 PM68 °FClear.No wind31%29.93 "Hg10 mi
8:51 PM70 °FClear.No wind28%29.93 "Hg10 mi
7:51 PM74 °FClear.No wind22%29.91 "Hg10 mi
6:51 PM77 °FSunny.No wind16%29.90 "Hg10 mi
5:51 PM83 °FSunny.6 mph16%29.89 "Hg10 mi
4:51 PM87 °FSunny.7 mph13%29.89 "Hg10 mi
3:51 PM88 °FSunny.7 mph13%29.89 "Hg10 mi
2:51 PM89 °FSunny.8 mph11%29.90 "Hg10 mi
1:51 PM88 °FPassing clouds.7 mph16%29.92 "Hg10 mi
12:51 PM88 °FScattered clouds.7 mph19%29.94 "Hg10 mi
11:51 AM85 °FSunny.5 mph20%29.97 "Hg10 mi
10:51 AM80 °FSunny.No wind26%29.98 "Hg10 mi
9:51 AM72 °FSunny.No wind40%29.99 "Hg10 mi
8:51 AM64 °FSunny.No wind56%29.98 "Hg10 mi
7:51 AM60 °FClear.3 mph65%29.96 "Hg10 mi
6:51 AM58 °FClear.No wind67%29.94 "Hg10 mi
5:51 AM58 °FClear.No wind67%29.93 "Hg10 mi
4:51 AM59 °FClear.No wind67%29.93 "Hg10 mi
3:51 AM61 °FClear.No wind62%29.91 "Hg10 mi
2:51 AM62 °FClear.No wind65%29.93 "Hg10 mi
1:51 AM62 °FClear.No wind65%29.95 "Hg10 mi
Weather by CustomWeather, © 2014

See weather overviewHow to use our weather pages